Year,Month,Day,Hour,Minute,Value (Times are PST for windgust in km/hr)
2015,09,11,00,00,3.20
2015,09,11,00,01,1.60
2015,09,11,00,02,1.60
2015,09,11,00,06,4.80
2015,09,11,00,07,3.20
2015,09,11,00,08,3.20
2015,09,11,00,09,3.20
2015,09,11,00,10,4.80
2015,09,11,00,11,3.20
2015,09,11,00,12,1.60
2015,09,11,00,13,1.60
2015,09,11,00,14,1.60
2015,09,11,00,16,1.60
2015,09,11,00,17,1.60
2015,09,11,00,18,1.60
2015,09,11,00,19,1.60
2015,09,11,00,20,1.60
2015,09,11,00,22,1.60
2015,09,11,00,23,3.20
2015,09,11,00,24,1.60
2015,09,11,00,25,3.20
2015,09,11,00,26,1.60
2015,09,11,00,28,3.20
2015,09,11,00,29,3.20
2015,09,11,00,30,3.20
2015,09,11,00,31,3.20
2015,09,11,00,34,1.60
2015,09,11,00,35,1.60
2015,09,11,00,36,1.60
2015,09,11,00,37,1.60
2015,09,11,00,48,1.60
2015,09,11,00,49,1.60
2015,09,11,00,50,3.20
2015,09,11,00,51,3.20
2015,09,11,00,52,1.60
2015,09,11,00,55,1.60
2015,09,11,00,56,1.60
2015,09,11,00,59,1.60
2015,09,11,01,00,3.20
2015,09,11,01,01,3.20
2015,09,11,01,02,3.20
2015,09,11,01,03,3.20
2015,09,11,01,04,3.20
2015,09,11,01,05,1.60
2015,09,11,01,06,1.60
2015,09,11,01,07,1.60
2015,09,11,01,11,1.60
2015,09,11,01,12,1.60
2015,09,11,01,13,1.60
2015,09,11,01,14,1.60
2015,09,11,01,15,1.60
2015,09,11,01,16,3.20
2015,09,11,01,17,1.60
2015,09,11,01,18,3.20
2015,09,11,01,19,1.60
2015,09,11,01,20,1.60
2015,09,11,01,21,1.60
2015,09,11,01,22,1.60
2015,09,11,01,23,3.20
2015,09,11,01,24,3.20
2015,09,11,01,25,1.60
2015,09,11,01,35,1.60
2015,09,11,01,36,1.60
2015,09,11,01,39,1.60
2015,09,11,01,40,1.60
2015,09,11,01,41,3.20
2015,09,11,01,42,1.60
2015,09,11,01,44,1.60
2015,09,11,01,45,1.60
2015,09,11,01,46,1.60
2015,09,11,01,47,1.60
2015,09,11,01,48,1.60
2015,09,11,01,49,1.60
2015,09,11,01,53,1.60
2015,09,11,01,55,1.60
2015,09,11,01,57,1.60
2015,09,11,01,58,3.20
2015,09,11,01,59,3.20
2015,09,11,02,00,1.60
2015,09,11,02,01,3.20
2015,09,11,02,02,3.20
2015,09,11,02,03,1.60
2015,09,11,02,04,1.60
2015,09,11,02,05,1.60
2015,09,11,02,06,1.60
2015,09,11,02,16,1.60
2015,09,11,02,17,1.60
2015,09,11,02,18,1.60
2015,09,11,02,19,1.60
2015,09,11,02,20,1.60
2015,09,11,02,21,1.60
2015,09,11,02,22,1.60
2015,09,11,02,23,1.60
2015,09,11,02,26,1.60
2015,09,11,02,27,1.60
2015,09,11,02,28,1.60
2015,09,11,02,29,1.60
2015,09,11,02,30,1.60
2015,09,11,02,31,1.60
2015,09,11,02,32,3.20
2015,09,11,02,33,1.60
2015,09,11,02,35,1.60
2015,09,11,02,36,3.20
2015,09,11,02,37,3.20
2015,09,11,02,38,3.20
2015,09,11,02,39,1.60
2015,09,11,02,40,3.20
2015,09,11,02,41,1.60
2015,09,11,02,42,1.60
2015,09,11,02,43,1.60
2015,09,11,02,45,1.60
2015,09,11,02,49,1.60
2015,09,11,02,53,1.60
2015,09,11,02,54,1.60
2015,09,11,02,57,1.60
2015,09,11,02,58,1.60
2015,09,11,02,59,1.60
2015,09,11,03,00,3.20
2015,09,11,03,01,1.60
2015,09,11,03,02,3.20
2015,09,11,03,03,3.20
2015,09,11,03,04,1.60
2015,09,11,03,05,3.20
2015,09,11,03,06,3.20
2015,09,11,03,07,3.20
2015,09,11,03,08,3.20
2015,09,11,03,09,3.20
2015,09,11,03,10,3.20
2015,09,11,03,11,1.60
2015,09,11,03,12,3.20
2015,09,11,03,13,3.20
2015,09,11,03,14,1.60
2015,09,11,03,15,3.20
2015,09,11,03,16,3.20
2015,09,11,03,17,3.20
2015,09,11,03,18,3.20
2015,09,11,03,19,1.60
2015,09,11,03,20,1.60
2015,09,11,03,21,3.20
2015,09,11,03,22,1.60
2015,09,11,03,23,3.20
2015,09,11,03,24,1.60
2015,09,11,03,25,1.60
2015,09,11,03,26,1.60
2015,09,11,03,27,1.60
2015,09,11,03,28,1.60
2015,09,11,03,29,3.20
2015,09,11,03,30,1.60
2015,09,11,03,31,3.20
2015,09,11,03,32,1.60
2015,09,11,03,33,3.20
2015,09,11,03,34,1.60
2015,09,11,03,35,1.60
2015,09,11,03,38,1.60
2015,09,11,03,39,1.60
2015,09,11,03,40,1.60
2015,09,11,03,46,1.60
2015,09,11,03,47,1.60
2015,09,11,04,01,3.20
2015,09,11,04,02,3.20
2015,09,11,04,03,1.60
2015,09,11,04,04,1.60
2015,09,11,05,03,1.60
2015,09,11,05,04,1.60
2015,09,11,05,05,1.60
2015,09,11,05,06,1.60
2015,09,11,05,07,1.60
2015,09,11,05,08,1.60
2015,09,11,05,09,3.20
2015,09,11,05,10,3.20
2015,09,11,05,11,3.20
2015,09,11,05,12,3.20
2015,09,11,05,13,3.20
2015,09,11,05,14,1.60
2015,09,11,05,15,1.60
2015,09,11,05,20,1.60
2015,09,11,05,21,1.60
2015,09,11,05,23,1.60
2015,09,11,05,24,1.60
2015,09,11,05,34,1.60
2015,09,11,05,35,1.60
2015,09,11,05,36,1.60
2015,09,11,05,37,1.60
2015,09,11,05,39,1.60
2015,09,11,05,40,1.60
2015,09,11,05,41,1.60
2015,09,11,05,42,1.60
2015,09,11,05,43,1.60
2015,09,11,05,44,1.60
2015,09,11,05,45,3.20
2015,09,11,05,46,1.60
2015,09,11,05,47,1.60
2015,09,11,06,41,4.80
2015,09,11,06,42,4.80
2015,09,11,06,43,1.60
2015,09,11,06,44,1.60
2015,09,11,06,45,1.60
2015,09,11,06,46,3.20
2015,09,11,06,47,3.20
2015,09,11,06,48,6.40
2015,09,11,06,49,1.60
2015,09,11,06,50,1.60
2015,09,11,06,51,3.20
2015,09,11,06,52,3.20
2015,09,11,06,53,3.20
2015,09,11,06,54,1.60
2015,09,11,06,55,1.60
2015,09,11,06,56,1.60
2015,09,11,06,57,1.60
2015,09,11,06,58,3.20
2015,09,11,06,59,3.20
2015,09,11,07,00,4.80
2015,09,11,07,01,1.60
2015,09,11,07,03,1.60
2015,09,11,07,07,1.60
2015,09,11,07,08,1.60
2015,09,11,07,09,3.20
2015,09,11,07,10,3.20
2015,09,11,07,11,4.80
2015,09,11,07,12,3.20
2015,09,11,07,13,1.60
2015,09,11,07,14,1.60
2015,09,11,07,15,1.60
2015,09,11,07,16,3.20
2015,09,11,07,17,1.60
2015,09,11,07,18,1.60
2015,09,11,07,19,1.60
2015,09,11,07,22,1.60
2015,09,11,07,23,1.60
2015,09,11,07,24,1.60
2015,09,11,07,25,1.60
2015,09,11,07,26,1.60
2015,09,11,07,27,1.60
2015,09,11,07,28,1.60
2015,09,11,07,29,1.60
2015,09,11,07,30,3.20
2015,09,11,07,31,1.60
2015,09,11,07,32,1.60
2015,09,11,07,33,1.60
2015,09,11,07,34,1.60
2015,09,11,07,35,1.60
2015,09,11,07,36,1.60
2015,09,11,07,37,1.60
2015,09,11,07,38,1.60
2015,09,11,07,39,1.60
2015,09,11,07,40,1.60
2015,09,11,07,41,1.60
2015,09,11,07,43,1.60
2015,09,11,07,44,1.60
2015,09,11,07,45,1.60
2015,09,11,07,47,1.60
2015,09,11,07,48,3.20
2015,09,11,07,49,3.20
2015,09,11,07,50,1.60
2015,09,11,07,51,1.60
2015,09,11,07,52,1.60
2015,09,11,07,53,1.60
2015,09,11,07,55,1.60
2015,09,11,07,56,1.60
2015,09,11,07,58,1.60
2015,09,11,07,59,1.60
2015,09,11,08,00,1.60
2015,09,11,08,01,1.60
2015,09,11,08,02,1.60
2015,09,11,08,03,1.60
2015,09,11,08,04,1.60
2015,09,11,08,09,1.60
2015,09,11,08,12,1.60
2015,09,11,08,13,1.60
2015,09,11,08,14,1.60
2015,09,11,08,15,1.60
2015,09,11,08,16,1.60
2015,09,11,08,17,1.60
2015,09,11,08,18,1.60
2015,09,11,08,19,1.60
2015,09,11,08,20,1.60
2015,09,11,08,21,3.20
2015,09,11,08,22,1.60
2015,09,11,08,23,3.20
2015,09,11,08,24,1.60
2015,09,11,08,25,1.60
2015,09,11,08,26,1.60
2015,09,11,08,27,3.20
2015,09,11,08,28,3.20
2015,09,11,08,29,4.80
2015,09,11,08,30,6.40
2015,09,11,08,31,4.80
2015,09,11,08,32,6.40
2015,09,11,08,33,4.80
2015,09,11,08,34,3.20
2015,09,11,08,35,3.20
2015,09,11,08,36,4.80
2015,09,11,08,37,6.40
2015,09,11,08,38,4.80
2015,09,11,08,39,1.60
2015,09,11,08,40,3.20
2015,09,11,08,41,4.80
2015,09,11,08,42,4.80
2015,09,11,08,43,3.20
2015,09,11,08,44,3.20
2015,09,11,08,45,3.20
2015,09,11,08,46,4.80
2015,09,11,08,47,3.20
2015,09,11,08,48,3.20
2015,09,11,08,49,1.60
2015,09,11,08,50,1.60
2015,09,11,08,51,3.20
2015,09,11,08,52,3.20
2015,09,11,08,53,4.80
2015,09,11,08,54,3.20
2015,09,11,08,55,4.80
2015,09,11,08,56,4.80
2015,09,11,08,57,1.60
2015,09,11,08,58,4.80
2015,09,11,08,59,3.20
2015,09,11,09,00,3.20
2015,09,11,09,01,4.80
2015,09,11,09,02,3.20
2015,09,11,09,03,4.80
2015,09,11,09,04,4.80
2015,09,11,09,05,3.20
2015,09,11,09,06,3.20
2015,09,11,09,07,3.20
2015,09,11,09,08,1.60
2015,09,11,09,09,1.60
2015,09,11,09,10,3.20
2015,09,11,09,11,6.40
2015,09,11,09,12,3.20
2015,09,11,09,16,6.40
2015,09,11,09,17,4.80
2015,09,11,09,18,4.80
2015,09,11,09,19,6.40
2015,09,11,09,20,1.60
2015,09,11,09,21,3.20
2015,09,11,09,22,3.20
2015,09,11,09,23,4.80
2015,09,11,09,24,4.80
2015,09,11,09,25,4.80
2015,09,11,09,26,3.20
2015,09,11,09,27,3.20
2015,09,11,09,28,1.60
2015,09,11,09,29,1.60
2015,09,11,09,30,4.80
2015,09,11,09,31,4.80
2015,09,11,09,32,3.20
2015,09,11,09,33,1.60
2015,09,11,09,34,3.20
2015,09,11,09,35,3.20
2015,09,11,09,36,3.20
2015,09,11,09,37,1.60
2015,09,11,09,38,3.20
2015,09,11,09,39,4.80
2015,09,11,09,40,1.60
2015,09,11,09,41,1.60
2015,09,11,09,42,1.60
2015,09,11,09,43,3.20
2015,09,11,09,44,3.20
2015,09,11,09,45,1.60
2015,09,11,09,46,1.60
2015,09,11,09,47,1.60
2015,09,11,09,48,1.60
2015,09,11,09,49,3.20
2015,09,11,09,50,3.20
2015,09,11,09,51,3.20
2015,09,11,09,52,3.20
2015,09,11,09,53,4.80
2015,09,11,09,54,4.80
2015,09,11,09,55,1.60
2015,09,11,09,56,3.20
2015,09,11,09,57,1.60
2015,09,11,09,58,3.20
2015,09,11,09,59,1.60
2015,09,11,10,00,1.60
2015,09,11,10,01,1.60
2015,09,11,10,03,3.20
2015,09,11,10,04,3.20
2015,09,11,10,05,3.20
2015,09,11,10,06,3.20
2015,09,11,10,07,1.60
2015,09,11,10,08,1.60
2015,09,11,10,09,4.80
2015,09,11,10,10,3.20
2015,09,11,10,11,4.80
2015,09,11,10,12,4.80
2015,09,11,10,13,1.60
2015,09,11,10,14,4.80
2015,09,11,10,15,4.80
2015,09,11,10,16,4.80
2015,09,11,10,17,4.80
2015,09,11,10,18,4.80
2015,09,11,10,19,3.20
2015,09,11,10,20,3.20
2015,09,11,10,21,3.20
2015,09,11,10,22,3.20
2015,09,11,10,23,3.20
2015,09,11,10,24,4.80
2015,09,11,10,25,3.20
2015,09,11,10,26,3.20
2015,09,11,10,27,1.60
2015,09,11,10,28,6.40
2015,09,11,10,29,6.40
2015,09,11,10,30,6.40
2015,09,11,10,31,6.40
2015,09,11,10,32,4.80
2015,09,11,10,33,4.80
2015,09,11,10,34,3.20
2015,09,11,10,35,1.60
2015,09,11,10,36,4.80
2015,09,11,10,37,4.80
2015,09,11,10,38,4.80
2015,09,11,10,39,6.40
2015,09,11,10,40,8.10
2015,09,11,10,41,6.40
2015,09,11,10,42,4.80
2015,09,11,10,43,3.20
2015,09,11,10,44,3.20
2015,09,11,10,45,4.80
2015,09,11,10,46,6.40
2015,09,11,10,47,4.80
2015,09,11,10,48,6.40
2015,09,11,10,49,4.80
2015,09,11,10,50,3.20
2015,09,11,10,51,3.20
2015,09,11,10,52,1.60
2015,09,11,10,53,3.20
2015,09,11,10,54,4.80
2015,09,11,10,55,4.80
2015,09,11,10,56,8.10
2015,09,11,10,57,3.20
2015,09,11,10,58,3.20
2015,09,11,10,59,4.80
2015,09,11,11,00,3.20
2015,09,11,11,01,3.20
2015,09,11,11,02,3.20
2015,09,11,11,03,3.20
2015,09,11,11,04,6.40
2015,09,11,11,05,4.80
2015,09,11,11,06,4.80
2015,09,11,11,07,6.40
2015,09,11,11,08,3.20
2015,09,11,11,09,3.20
2015,09,11,11,10,3.20
2015,09,11,11,11,4.80
2015,09,11,11,12,4.80
2015,09,11,11,13,3.20
2015,09,11,11,14,8.10
2015,09,11,11,15,6.40
2015,09,11,11,16,9.60
2015,09,11,11,17,4.80
2015,09,11,11,18,6.40
2015,09,11,11,19,8.10
2015,09,11,11,20,6.40
2015,09,11,11,21,8.10
2015,09,11,11,22,6.40
2015,09,11,11,23,6.40
2015,09,11,11,24,8.10
2015,09,11,11,25,9.60
2015,09,11,11,26,8.10
2015,09,11,11,27,12.90
2015,09,11,11,28,12.90
2015,09,11,11,29,3.20
2015,09,11,11,30,8.10
2015,09,11,11,31,6.40
2015,09,11,11,32,3.20
2015,09,11,11,33,1.60
2015,09,11,11,34,3.20
2015,09,11,11,35,8.10
2015,09,11,11,36,9.60
2015,09,11,11,37,11.30
2015,09,11,11,38,6.40
2015,09,11,11,39,8.10
2015,09,11,11,40,8.10
2015,09,11,11,41,6.40
2015,09,11,11,42,9.60
2015,09,11,11,43,8.10
2015,09,11,11,44,6.40
2015,09,11,11,45,6.40
2015,09,11,11,46,8.10
2015,09,11,11,47,6.40
2015,09,11,11,48,8.10
2015,09,11,11,49,8.10
2015,09,11,11,50,8.10
2015,09,11,11,51,9.60
2015,09,11,11,52,8.10
2015,09,11,11,53,6.40
2015,09,11,11,54,4.80
2015,09,11,11,55,6.40
2015,09,11,11,56,6.40
2015,09,11,11,57,11.30
2015,09,11,11,58,11.30
2015,09,11,11,59,8.10
2015,09,11,12,00,11.30
2015,09,11,12,01,14.50
2015,09,11,12,02,14.50
2015,09,11,12,03,11.30
2015,09,11,12,04,8.10
2015,09,11,12,05,16.10
2015,09,11,12,06,4.80
2015,09,11,12,07,4.80
2015,09,11,12,08,6.40
2015,09,11,12,09,9.60
2015,09,11,12,10,11.30
2015,09,11,12,11,6.40
2015,09,11,12,12,4.80
2015,09,11,12,13,3.20
2015,09,11,12,14,4.80
2015,09,11,12,15,6.40
2015,09,11,12,16,8.10
2015,09,11,12,17,9.60
2015,09,11,12,18,11.30
2015,09,11,12,19,14.50
2015,09,11,12,20,16.10
2015,09,11,12,21,17.70
2015,09,11,12,22,12.90
2015,09,11,12,23,12.90
2015,09,11,12,24,4.80
2015,09,11,12,25,12.90
2015,09,11,12,26,4.80
2015,09,11,12,27,8.10
2015,09,11,12,28,14.50
2015,09,11,12,29,12.90
2015,09,11,12,30,14.50
2015,09,11,12,31,3.20
2015,09,11,12,32,3.20
2015,09,11,12,33,6.40
2015,09,11,12,34,11.30
2015,09,11,12,35,8.10
2015,09,11,12,36,6.40
2015,09,11,12,37,11.30
2015,09,11,12,38,6.40
2015,09,11,12,39,8.10
2015,09,11,12,40,6.40
2015,09,11,12,41,4.80
2015,09,11,12,42,11.30
2015,09,11,12,43,14.50
2015,09,11,12,44,6.40
2015,09,11,12,45,3.20
2015,09,11,12,46,8.10
2015,09,11,12,47,6.40
2015,09,11,12,48,6.40
2015,09,11,12,49,6.40
2015,09,11,12,50,6.40
2015,09,11,12,51,6.40
2015,09,11,12,52,6.40
2015,09,11,12,53,9.60
2015,09,11,12,54,8.10
2015,09,11,12,55,6.40
2015,09,11,12,56,11.30
2015,09,11,12,57,9.60
2015,09,11,12,58,12.90
2015,09,11,12,59,12.90
2015,09,11,13,00,4.80
2015,09,11,13,01,8.10
2015,09,11,13,02,4.80
2015,09,11,13,03,4.80
2015,09,11,13,04,12.90
2015,09,11,13,05,11.30
2015,09,11,13,06,4.80
2015,09,11,13,07,11.30
2015,09,11,13,08,6.40
2015,09,11,13,09,8.10
2015,09,11,13,10,4.80
2015,09,11,13,11,16.10
2015,09,11,13,12,9.60
2015,09,11,13,13,11.30
2015,09,11,13,14,8.10
2015,09,11,13,15,6.40
2015,09,11,13,16,8.10
2015,09,11,13,17,3.20
2015,09,11,13,18,6.40
2015,09,11,13,19,3.20
2015,09,11,13,20,6.40
2015,09,11,13,21,11.30
2015,09,11,13,22,9.60
2015,09,11,13,23,4.80
2015,09,11,13,24,6.40
2015,09,11,13,25,6.40
2015,09,11,13,26,6.40
2015,09,11,13,27,4.80
2015,09,11,13,28,6.40
2015,09,11,13,29,6.40
2015,09,11,13,30,4.80
2015,09,11,13,31,12.90
2015,09,11,13,32,16.10
2015,09,11,13,33,8.10
2015,09,11,13,34,12.90
2015,09,11,13,35,9.60
2015,09,11,13,36,9.60
2015,09,11,13,37,3.20
2015,09,11,13,38,9.60
2015,09,11,13,39,6.40
2015,09,11,13,40,6.40
2015,09,11,13,41,8.10
2015,09,11,13,42,4.80
2015,09,11,13,43,6.40
2015,09,11,13,44,4.80
2015,09,11,13,45,8.10
2015,09,11,13,46,8.10
2015,09,11,13,47,4.80
2015,09,11,13,48,8.10
2015,09,11,13,49,3.20
2015,09,11,13,50,4.80
2015,09,11,13,51,8.10
2015,09,11,13,52,3.20
2015,09,11,13,53,9.60
2015,09,11,13,54,6.40
2015,09,11,13,55,12.90
2015,09,11,13,56,8.10
2015,09,11,13,57,8.10
2015,09,11,13,58,8.10
2015,09,11,13,59,8.10
2015,09,11,14,00,12.90
2015,09,11,14,01,12.90
2015,09,11,14,02,6.40
2015,09,11,14,03,4.80
2015,09,11,14,04,3.20
2015,09,11,14,05,19.30
2015,09,11,14,06,6.40
2015,09,11,14,07,3.20
2015,09,11,14,08,3.20
2015,09,11,14,09,3.20
2015,09,11,14,10,3.20
2015,09,11,14,11,3.20
2015,09,11,14,12,4.80
2015,09,11,14,13,1.60
2015,09,11,14,14,11.30
2015,09,11,14,15,11.30
2015,09,11,14,16,12.90
2015,09,11,14,17,14.50
2015,09,11,14,18,11.30
2015,09,11,14,19,19.30
2015,09,11,14,20,8.10
2015,09,11,14,21,3.20
2015,09,11,14,22,14.50
2015,09,11,14,23,12.90
2015,09,11,14,24,9.60
2015,09,11,14,25,9.60
2015,09,11,14,26,4.80
2015,09,11,14,27,8.10
2015,09,11,14,28,9.60
2015,09,11,14,29,11.30
2015,09,11,14,30,11.30
2015,09,11,14,31,4.80
2015,09,11,14,32,4.80
2015,09,11,14,33,4.80
2015,09,11,14,34,1.60
2015,09,11,14,35,6.40
2015,09,11,14,36,11.30
2015,09,11,14,37,11.30
2015,09,11,14,38,6.40
2015,09,11,14,39,12.90
2015,09,11,14,40,9.60
2015,09,11,14,41,9.60
2015,09,11,14,42,9.60
2015,09,11,14,43,8.10
2015,09,11,14,44,9.60
2015,09,11,14,45,9.60
2015,09,11,14,46,6.40
2015,09,11,14,47,3.20
2015,09,11,14,48,4.80
2015,09,11,14,49,4.80
2015,09,11,14,50,4.80
2015,09,11,14,51,14.50
2015,09,11,14,52,6.40
2015,09,11,14,53,8.10
2015,09,11,14,54,4.80
2015,09,11,14,55,9.60
2015,09,11,14,56,6.40
2015,09,11,14,57,8.10
2015,09,11,14,58,4.80
2015,09,11,14,59,9.60
2015,09,11,15,00,4.80
2015,09,11,15,01,6.40
2015,09,11,15,02,6.40
2015,09,11,15,03,4.80
2015,09,11,15,04,6.40
2015,09,11,15,05,8.10
2015,09,11,15,06,9.60
2015,09,11,15,07,9.60
2015,09,11,15,08,6.40
2015,09,11,15,09,3.20
2015,09,11,15,10,4.80
2015,09,11,15,11,4.80
2015,09,11,15,12,4.80
2015,09,11,15,13,8.10
2015,09,11,15,14,6.40
2015,09,11,15,15,6.40
2015,09,11,15,16,6.40
2015,09,11,15,17,3.20
2015,09,11,15,18,3.20
2015,09,11,15,19,3.20
2015,09,11,15,20,4.80
2015,09,11,15,21,4.80
2015,09,11,15,22,4.80
2015,09,11,15,23,6.40
2015,09,11,15,24,3.20
2015,09,11,15,25,6.40
2015,09,11,15,26,6.40
2015,09,11,15,27,6.40
2015,09,11,15,28,6.40
2015,09,11,15,29,9.60
2015,09,11,15,30,4.80
2015,09,11,15,31,4.80
2015,09,11,15,32,3.20
2015,09,11,15,33,8.10
2015,09,11,15,34,6.40
2015,09,11,15,35,3.20
2015,09,11,15,36,9.60
2015,09,11,15,37,6.40
2015,09,11,15,38,3.20
2015,09,11,15,39,6.40
2015,09,11,15,40,6.40
2015,09,11,15,41,3.20
2015,09,11,15,42,4.80
2015,09,11,15,43,4.80
2015,09,11,15,44,3.20
2015,09,11,15,45,1.60
2015,09,11,15,46,4.80
2015,09,11,15,47,8.10
2015,09,11,15,48,4.80
2015,09,11,15,49,6.40
2015,09,11,15,50,6.40
2015,09,11,15,51,1.60
2015,09,11,15,52,6.40
2015,09,11,15,53,3.20
2015,09,11,15,54,8.10
2015,09,11,15,55,9.60
2015,09,11,15,56,11.30
2015,09,11,15,57,4.80
2015,09,11,15,58,6.40
2015,09,11,15,59,4.80
2015,09,11,16,00,6.40
2015,09,11,16,01,6.40
2015,09,11,16,02,12.90
2015,09,11,16,03,6.40
2015,09,11,16,04,11.30
2015,09,11,16,05,6.40
2015,09,11,16,06,3.20
2015,09,11,16,07,3.20
2015,09,11,16,08,3.20
2015,09,11,16,09,1.60
2015,09,11,16,10,1.60
2015,09,11,16,11,1.60
2015,09,11,16,12,4.80
2015,09,11,16,13,6.40
2015,09,11,16,14,3.20
2015,09,11,16,15,3.20
2015,09,11,16,16,3.20
2015,09,11,16,17,4.80
2015,09,11,16,18,3.20
2015,09,11,16,19,1.60
2015,09,11,16,20,3.20
2015,09,11,16,21,3.20
2015,09,11,16,22,6.40
2015,09,11,16,23,6.40
2015,09,11,16,24,3.20
2015,09,11,16,25,4.80
2015,09,11,16,26,9.60
2015,09,11,16,27,9.60
2015,09,11,16,28,11.30
2015,09,11,16,29,6.40
2015,09,11,16,30,4.80
2015,09,11,16,31,4.80
2015,09,11,16,32,4.80
2015,09,11,16,33,3.20
2015,09,11,16,34,3.20
2015,09,11,16,35,1.60
2015,09,11,16,36,3.20
2015,09,11,16,37,4.80
2015,09,11,16,38,4.80
2015,09,11,16,39,4.80
2015,09,11,16,40,3.20
2015,09,11,16,41,1.60
2015,09,11,16,42,1.60
2015,09,11,16,43,4.80
2015,09,11,16,44,6.40
2015,09,11,16,45,4.80
2015,09,11,16,46,3.20
2015,09,11,16,47,4.80
2015,09,11,16,48,6.40
2015,09,11,16,49,6.40
2015,09,11,16,50,6.40
2015,09,11,16,51,9.60
2015,09,11,16,52,4.80
2015,09,11,16,53,3.20
2015,09,11,16,54,4.80
2015,09,11,16,55,6.40
2015,09,11,16,56,6.40
2015,09,11,16,57,4.80
2015,09,11,16,58,3.20
2015,09,11,16,59,4.80
2015,09,11,17,00,4.80
2015,09,11,17,01,3.20
2015,09,11,17,02,3.20
2015,09,11,17,03,1.60
2015,09,11,17,04,1.60
2015,09,11,17,05,4.80
2015,09,11,17,06,6.40
2015,09,11,17,07,8.10
2015,09,11,17,08,4.80
2015,09,11,17,09,8.10
2015,09,11,17,10,4.80
2015,09,11,17,11,3.20
2015,09,11,17,12,3.20
2015,09,11,17,13,1.60
2015,09,11,17,14,4.80
2015,09,11,17,15,3.20
2015,09,11,17,16,3.20
2015,09,11,17,17,4.80
2015,09,11,17,18,6.40
2015,09,11,17,19,6.40
2015,09,11,17,20,6.40
2015,09,11,17,21,4.80
2015,09,11,17,22,4.80
2015,09,11,17,23,4.80
2015,09,11,17,24,1.60
2015,09,11,17,25,3.20
2015,09,11,17,26,4.80
2015,09,11,17,27,3.20
2015,09,11,17,28,6.40
2015,09,11,17,29,9.60
2015,09,11,17,30,8.10
2015,09,11,17,31,4.80
2015,09,11,17,32,3.20
2015,09,11,17,33,4.80
2015,09,11,17,34,3.20
2015,09,11,17,35,1.60
2015,09,11,17,36,1.60
2015,09,11,17,37,3.20
2015,09,11,17,38,4.80
2015,09,11,17,39,4.80
2015,09,11,17,40,4.80
2015,09,11,17,41,4.80
2015,09,11,17,42,3.20
2015,09,11,17,43,6.40
2015,09,11,17,44,4.80
2015,09,11,17,45,6.40
2015,09,11,17,46,6.40
2015,09,11,17,47,6.40
2015,09,11,17,48,4.80
2015,09,11,17,49,4.80
2015,09,11,17,50,4.80
2015,09,11,17,51,4.80
2015,09,11,17,52,3.20
2015,09,11,17,53,4.80
2015,09,11,17,54,3.20
2015,09,11,17,55,4.80
2015,09,11,17,56,4.80
2015,09,11,17,57,4.80
2015,09,11,17,58,6.40
2015,09,11,17,59,3.20
2015,09,11,18,00,8.10
2015,09,11,18,01,8.10
2015,09,11,18,02,8.10
2015,09,11,18,03,6.40
2015,09,11,18,04,4.80
2015,09,11,18,05,3.20
2015,09,11,18,06,4.80
2015,09,11,18,07,6.40
2015,09,11,18,08,8.10
2015,09,11,18,09,4.80
2015,09,11,18,10,3.20
2015,09,11,18,11,3.20
2015,09,11,18,12,3.20
2015,09,11,18,13,3.20
2015,09,11,18,14,3.20
2015,09,11,18,15,6.40
2015,09,11,18,16,6.40
2015,09,11,18,17,4.80
2015,09,11,18,18,4.80
2015,09,11,18,19,4.80
2015,09,11,18,20,3.20
2015,09,11,18,21,6.40
2015,09,11,18,22,4.80
2015,09,11,18,23,6.40
2015,09,11,18,24,4.80
2015,09,11,18,25,6.40
2015,09,11,18,26,3.20
2015,09,11,18,27,3.20
2015,09,11,18,28,1.60
2015,09,11,18,29,1.60
2015,09,11,18,30,1.60
2015,09,11,18,31,3.20
2015,09,11,18,32,4.80
2015,09,11,18,33,4.80
2015,09,11,18,34,1.60
2015,09,11,18,35,3.20
2015,09,11,18,36,3.20
2015,09,11,18,59,6.40
2015,09,11,19,00,6.40
2015,09,11,19,01,3.20
2015,09,11,19,02,3.20
2015,09,11,19,03,1.60
2015,09,11,19,04,1.60
2015,09,11,19,05,1.60
2015,09,11,19,06,1.60
2015,09,11,19,07,1.60
2015,09,11,19,08,1.60
2015,09,11,19,09,1.60
2015,09,11,19,11,3.20
2015,09,11,19,12,1.60
2015,09,11,19,13,1.60
2015,09,11,19,14,1.60
2015,09,11,19,15,1.60
2015,09,11,19,16,1.60
2015,09,11,19,17,1.60
2015,09,11,19,18,3.20
2015,09,11,19,19,3.20
2015,09,11,19,20,6.40
2015,09,11,19,21,6.40
2015,09,11,19,22,4.80
2015,09,11,19,23,3.20
2015,09,11,19,24,3.20
2015,09,11,19,25,3.20
2015,09,11,19,26,3.20
2015,09,11,19,27,6.40
2015,09,11,19,28,4.80
2015,09,11,19,29,4.80
2015,09,11,19,30,4.80
2015,09,11,19,31,4.80
2015,09,11,19,32,3.20
2015,09,11,19,33,1.60
2015,09,11,19,34,1.60
2015,09,11,19,35,1.60
2015,09,11,19,36,1.60
2015,09,11,19,38,1.60
2015,09,11,19,41,1.60
2015,09,11,19,42,1.60
2015,09,11,19,43,1.60
2015,09,11,19,44,1.60
2015,09,11,19,45,1.60
2015,09,11,19,46,1.60
2015,09,11,19,47,3.20
2015,09,11,19,48,3.20
2015,09,11,19,49,3.20
2015,09,11,19,50,1.60
2015,09,11,19,51,3.20
2015,09,11,19,52,6.40
2015,09,11,19,53,3.20
2015,09,11,19,54,1.60
2015,09,11,19,55,3.20
2015,09,11,19,56,3.20
2015,09,11,19,57,1.60
2015,09,11,19,58,1.60
2015,09,11,19,59,1.60
2015,09,11,20,00,1.60
2015,09,11,20,01,3.20
2015,09,11,20,02,3.20
2015,09,11,20,03,3.20
2015,09,11,20,04,3.20
2015,09,11,20,05,1.60
2015,09,11,20,06,3.20
2015,09,11,20,07,3.20
2015,09,11,20,08,1.60
2015,09,11,20,09,3.20
2015,09,11,20,10,1.60
2015,09,11,20,11,1.60
2015,09,11,20,12,3.20
2015,09,11,20,13,1.60
2015,09,11,20,14,3.20
2015,09,11,20,15,3.20
2015,09,11,20,16,3.20
2015,09,11,20,17,3.20
2015,09,11,20,18,3.20
2015,09,11,20,19,4.80
2015,09,11,20,20,4.80
2015,09,11,20,21,4.80
2015,09,11,20,22,3.20
2015,09,11,20,23,4.80
2015,09,11,20,24,3.20
2015,09,11,20,25,4.80
2015,09,11,20,26,3.20
2015,09,11,20,27,3.20
2015,09,11,20,28,4.80
2015,09,11,20,29,4.80
2015,09,11,20,30,3.20
2015,09,11,20,31,3.20
2015,09,11,20,32,3.20
2015,09,11,20,33,3.20
2015,09,11,20,34,4.80
2015,09,11,20,35,3.20
2015,09,11,20,36,3.20
2015,09,11,20,37,6.40
2015,09,11,20,38,6.40
2015,09,11,20,39,4.80
2015,09,11,20,40,4.80
2015,09,11,20,41,3.20
2015,09,11,20,42,1.60
2015,09,11,20,43,3.20
2015,09,11,20,44,3.20
2015,09,11,20,45,3.20
2015,09,11,20,46,3.20
2015,09,11,20,47,4.80
2015,09,11,20,48,3.20
2015,09,11,20,49,6.40
2015,09,11,20,50,6.40
2015,09,11,20,51,6.40
2015,09,11,20,52,8.10
2015,09,11,20,53,8.10
2015,09,11,20,54,6.40
2015,09,11,20,55,6.40
2015,09,11,20,56,6.40
2015,09,11,20,57,6.40
2015,09,11,20,58,4.80
2015,09,11,20,59,4.80
2015,09,11,21,00,4.80
2015,09,11,21,01,1.60
2015,09,11,21,06,1.60
2015,09,11,21,11,3.20
2015,09,11,21,12,4.80
2015,09,11,21,13,4.80
2015,09,11,21,14,4.80
2015,09,11,21,15,6.40
2015,09,11,21,16,4.80
2015,09,11,21,17,4.80
2015,09,11,21,18,3.20
2015,09,11,21,19,3.20
2015,09,11,21,20,4.80
2015,09,11,21,21,6.40
2015,09,11,21,22,6.40
2015,09,11,21,23,6.40
2015,09,11,21,24,1.60
2015,09,11,21,25,3.20
2015,09,11,21,26,3.20
2015,09,11,21,27,1.60
2015,09,11,21,28,3.20
2015,09,11,21,29,4.80
2015,09,11,21,30,4.80
2015,09,11,21,31,3.20
2015,09,11,21,32,1.60
2015,09,11,21,33,1.60
2015,09,11,21,35,3.20
2015,09,11,21,36,4.80
2015,09,11,21,37,4.80
2015,09,11,21,38,4.80
2015,09,11,21,39,4.80
2015,09,11,21,40,3.20
2015,09,11,21,41,6.40
2015,09,11,21,42,6.40
2015,09,11,21,43,6.40
2015,09,11,21,44,6.40
2015,09,11,21,45,6.40
2015,09,11,21,46,4.80
2015,09,11,21,47,4.80
2015,09,11,21,48,4.80
2015,09,11,21,49,1.60
2015,09,11,21,51,3.20
2015,09,11,21,52,4.80
2015,09,11,21,53,4.80
2015,09,11,21,54,4.80
2015,09,11,21,55,4.80
2015,09,11,21,56,4.80
2015,09,11,21,57,4.80
2015,09,11,21,58,3.20
2015,09,11,21,59,6.40
2015,09,11,22,00,4.80
2015,09,11,22,01,3.20
2015,09,11,22,02,4.80
2015,09,11,22,03,6.40
2015,09,11,22,04,4.80
2015,09,11,22,05,4.80
2015,09,11,22,06,4.80
2015,09,11,22,07,3.20
2015,09,11,22,08,3.20
2015,09,11,22,09,3.20
2015,09,11,22,10,3.20
2015,09,11,22,11,4.80
2015,09,11,22,12,3.20
2015,09,11,22,13,3.20
2015,09,11,22,14,3.20
2015,09,11,22,15,1.60
2015,09,11,22,16,1.60
2015,09,11,22,18,3.20
2015,09,11,22,19,8.10
2015,09,11,22,20,3.20
2015,09,11,22,21,6.40
2015,09,11,22,22,6.40
2015,09,11,22,23,8.10
2015,09,11,22,24,9.60
2015,09,11,22,25,8.10
2015,09,11,22,26,8.10
2015,09,11,22,27,4.80
2015,09,11,22,28,4.80
2015,09,11,22,29,6.40
2015,09,11,22,30,6.40